Theta_e
314 313 306 303 292 290 287 291 293 295 296 300 301 301 299 301 300 295 310 320 327 328 331 332 337 334 332 331 329 328 327 326 326 326 327 328 330 332 336 339 341 341 344 344 346 346 345 345 345
314 309 303 297 288 284 287 290 292 297 300 300 301 301 300 300 306 307 312 321 325 325 324 325 332 330 329 327 326 325 324 324 324 323 323 323 324 326 328 331 334 338 341 343 345 345 345 345 344
314 309 299 295 286 285 288 292 293 301 301 301 303 305 303 302 305 307 309 320 320 318 319 323 329 327 326 325 323 322 320 320 319 319 319 320 321 322 323 325 327 330 334 340 342 343 342 343 341
307 301 296 291 288 291 290 292 298 301 301 304 302 301 304 307 307 309 317 317 314 314 316 324 326 325 324 322 320 318 317 316 316 316 317 319 320 321 322 323 323 324 327 331 335 339 339 340 342
305 296 289 287 286 290 291 294 298 299 296 300 300 299 301 305 308 309 313 314 312 310 314 319 325 322 320 318 316 314 313 313 313 315 316 318 319 319 321 321 322 323 324 325 327 331 334 337 338
297 296 289 286 287 291 294 294 297 295 297 297 301 299 300 304 307 307 308 309 311 310 313 314 320 320 317 316 314 312 311 311 313 314 315 315 316 316 317 318 319 320 321 322 324 325 327 330 334
295 291 289 287 288 292 294 295 293 294 294 298 301 297 299 303 306 307 306 306 308 309 309 308 309 313 318 317 315 312 311 311 313 314 314 314 314 315 317 317 317 318 319 320 321 321 323 325 329
298 295 291 290 291 292 294 295 296 295 296 299 300 296 296 302 307 306 305 304 304 306 305 304 304 306 306 307 316 315 314 311 313 314 315 316 315 315 314 314 314 317 318 318 319 320 321 322 326
300 293 289 292 291 293 293 293 296 298 296 297 300 298 300 305 306 303 300 301 301 303 303 301 302 302 302 302 304 309 309 310 311 309 310 311 307 309 312 314 313 314 315 316 317 319 319 320 324
296 291 291 294 292 291 293 293 293 294 294 296 297 299 303 304 303 302 300 300 300 300 300 299 299 299 300 302 301 301 303 302 303 304 305 306 307 309 311 311 313 314 314 314 315 316 318 319 316
295 291 292 295 296 295 294 293 294 292 293 295 296 297 301 301 301 301 301 301 302 301 300 299 299 299 298 299 299 299 299 300 302 303 305 306 308 310 310 310 310 310 311 307 309 312 309 310 313
292 295 295 296 297 295 293 295 294 295 297 297 298 297 300 300 300 301 301 301 301 301 301 300 299 298 297 298 298 298 300 302 302 303 305 305 305 305 306 308 309 309 311 308 311 311 311 309 314
293 294 296 296 296 296 296 295 294 295 299 299 299 298 300 300 301 302 302 302 301 300 300 298 298 297 298 297 298 300 301 301 302 303 306 309 304 303 305 305 309 310 310 309 309 311 312 315 321
294 295 296 297 296 296 295 293 294 296 296 296 298 297 297 300 300 299 299 300 301 300 299 298 297 297 298 299 300 301 301 302 303 305 309 310 308 306 307 305 305 308 307 310 311 315 316 318 320
296 292 294 295 295 295 295 293 293 298 297 297 297 296 297 297 299 300 302 301 301 299 298 297 297 298 299 301 301 301 303 305 304 308 309 310 310 309 306 303 303 304 309 310 313 318 319 319 319
292 291 287 292 294 295 293 290 297 297 294 297 296 296 296 297 298 299 300 301 300 298 297 297 300 300 301 301 301 302 303 303 305 308 307 309 307 309 304 303 303 306 310 312 313 317 317 317 317
288 285 286 291 295 294 291 290 296 296 295 295 295 296 296 296 297 298 299 299 299 298 296 297 299 300 302 301 301 301 301 301 302 303 304 304 306 305 303 303 303 307 309 312 316 316 316 309 307
284 284 287 288 292 291 289 291 296 298 296 297 296 295 295 297 297 298 298 299 297 296 296 297 300 301 301 300 300 300 300 301 303 303 303 304 304 304 303 302 303 309 310 314 314 311 309 307 305
289 288 287 289 293 290 290 291 294 297 295 296 295 294 294 295 296 297 297 297 295 295 296 299 300 300 299 298 297 298 297 299 301 303 304 303 303 304 303 303 307 308 312 312 310 309 307 306 307
288 286 286 290 291 290 289 290 295 296 295 294 294 295 294 293 294 295 294 295 296 294 297 299 300 300 299 298 298 298 298 304 304 303 302 303 303 304 304 303 305 310 312 310 310 309 308 308 308
287 285 285 287 290 289 287 286 289 293 293 294 294 294 294 294 294 293 293 293 292 294 297 299 299 300 299 300 299 300 304 306 306 303 301 302 303 304 304 304 307 313 312 310 309 309 309 306 308
284 291 290 288 286 280 286 279 283 290 291 292 294 293 293 292 294 293 293 292 292 294 297 299 299 299 300 300 299 299 299 302 305 303 302 302 304 304 305 305 310 313 312 310 309 310 309 308 305
288 291 289 287 284 282 281 278 284 286 289 292 292 292 292 293 293 292 292 293 293 296 296 298 298 299 299 299 299 300 299 305 304 301 301 302 304 306 307 309 313 313 309 309 309 308 309 310 307
291 288 287 284 282 275 278 280 281 284 288 293 292 291 293 293 292 292 292 292 293 295 296 296 297 297 298 298 299 300 299 300 300 300 301 302 304 305 310 313 315 313 309 308 309 310 309 309 307
288 285 275 273 272 276 280 278 283 289 290 291 293 293 292 293 291 291 291 291 293 294 295 296 297 296 297 297 297 298 299 300 301 301 302 303 306 306 312 314 312 312 310 311 311 310 310 309 306
284 285 277 271 273 277 281 278 285 290 290 290 292 292 292 292 292 291 291 291 293 295 295 296 296 296 297 297 297 298 298 299 300 302 305 310 309 307 314 314 313 310 309 309 310 310 310 308 306
285 282 285 280 272 274 278 282 288 287 288 288 289 291 291 290 291 291 291 291 292 294 295 296 296 296 296 297 297 298 297 298 300 302 307 308 309 309 314 313 312 312 312 311 312 310 308 307 306
286 288 280 278 271 271 277 278 282 285 285 286 287 288 290 290 289 290 290 290 292 293 294 295 296 296 296 297 297 298 298 298 299 301 302 303 309 309 310 312 312 312 312 311 312 310 309 306 305
284 283 283 283 280 277 275 279 284 282 284 284 286 288 289 291 291 291 290 290 291 292 293 294 295 296 296 296 297 297 298 298 298 300 302 303 305 310 311 311 311 310 309 309 308 308 309 307 303
285 284 284 280 277 279 280 279 285 285 285 285 285 287 288 291 291 291 291 290 289 290 291 293 294 295 296 296 296 297 298 299 297 299 303 306 307 308 310 310 310 310 310 309 310 308 308 306 306
Wind_Speed
4 4 2 6 5 5 4 6 3 2 1 2 1 3 4 2 5 6 3 4 10 9 8 8 12 11 10 8 8 6 4 3 3 3 3 4 6 7 8 8 8 8 11 13 13 12 12 13 12
2 2 5 3 5 2 6 4 5 6 2 2 2 2 2 2 1 4 5 6 9 9 7 7 10 11 9 7 7 6 5 4 3 3 3 4 5 7 9 11 12 12 12 15 16 16 15 14 12
2 4 4 4 3 5 4 5 5 3 2 3 2 1 5 3 2 7 3 10 8 6 6 7 11 11 9 8 7 6 5 4 3 2 3 5 6 7 8 10 11 14 15 16 16 19 18 17 15
3 4 4 2 6 6 5 3 3 2 3 3 2 2 1 1 4 7 12 11 10 7 6 10 12 11 9 8 7 5 4 3 2 3 4 6 7 8 10 11 12 13 14 17 18 17 17 20 19
4 3 2 3 5 5 5 4 6 4 3 2 2 2 3 1 2 9 13 10 11 7 6 7 12 11 9 8 6 5 3 2 2 4 5 6 8 9 10 12 13 14 15 16 17 18 17 15 20
4 3 3 4 5 5 6 4 5 4 3 2 1 2 3 2 6 7 9 8 8 10 6 6 10 9 9 7 6 4 2 0 3 5 5 6 7 9 10 11 12 13 14 16 17 17 17 17 15
7 4 3 3 5 4 4 2 3 3 2 5 3 4 2 1 4 8 8 8 7 6 7 5 6 7 8 7 5 4 3 2 5 6 6 8 8 9 10 9 11 12 13 14 14 16 17 17 17
4 4 1 5 3 6 1 2 0 3 5 1 5 5 6 4 8 7 6 6 6 6 6 6 5 4 4 3 5 5 3 3 6 7 7 7 7 6 6 7 9 12 13 13 14 15 14 14 15
3 4 3 5 4 5 2 1 2 1 2 2 4 4 2 9 10 7 4 3 3 4 6 6 6 5 4 4 3 2 2 4 5 5 6 4 2 3 4 5 10 11 11 12 13 15 16 14 11
4 4 10 5 3 3 1 1 2 3 3 5 5 2 4 7 10 9 8 9 6 7 5 6 6 6 5 3 2 1 2 2 2 3 4 3 4 3 3 5 8 10 11 13 13 13 14 10 4
5 6 5 4 4 2 1 3 1 2 8 10 8 6 6 5 7 8 8 8 12 7 5 7 6 6 5 3 2 0 1 1 2 3 3 3 3 3 2 2 2 3 6 3 6 6 4 5 3
2 7 4 3 1 0 3 2 5 8 13 1 8 3 7 9 10 11 10 10 7 7 8 7 7 6 4 2 2 1 1 1 2 3 4 2 2 3 3 3 3 3 3 5 4 4 4 5 4
3 3 3 6 4 5 4 7 6 13 14 8 9 6 9 10 11 8 7 5 6 7 7 8 7 6 5 3 1 1 1 1 3 3 4 0 2 3 3 4 3 3 4 3 5 5 2 4 7
2 3 7 6 5 4 5 3 2 7 1 4 6 9 9 12 13 5 6 9 8 7 8 8 7 6 5 3 2 1 1 3 3 2 2 3 2 2 2 3 4 3 3 4 4 5 3 4 6
1 5 7 5 2 6 3 7 11 13 6 10 7 7 7 12 9 15 13 11 9 6 8 9 7 6 5 3 1 0 2 2 3 2 3 4 1 2 2 2 3 4 4 5 7 2 5 5 7
2 4 4 1 4 1 2 10 8 5 4 9 8 8 8 10 11 9 9 8 8 8 10 8 6 6 5 3 2 0 2 2 3 2 3 3 2 1 2 2 4 4 3 3 3 2 6 4 8
3 3 5 8 5 3 3 8 7 3 4 10 9 10 9 9 9 9 9 9 10 11 10 8 7 7 5 3 2 1 1 1 2 3 2 2 1 1 1 2 3 4 4 3 3 5 5 9 10
6 4 5 5 2 1 3 17 17 15 9 17 9 10 10 11 12 8 9 9 9 9 8 7 6 6 5 3 2 1 1 2 2 2 1 1 0 1 1 1 3 3 3 6 7 9 9 9 10
4 4 2 2 2 1 7 14 19 14 10 18 10 9 10 9 5 7 9 9 10 8 8 8 8 6 3 1 2 1 1 2 2 2 2 1 2 2 2 0 2 3 3 6 10 8 12 7 7
2 2 5 5 2 2 6 17 21 17 14 8 7 9 8 3 4 5 9 9 12 10 8 7 7 6 3 2 2 2 2 1 1 1 2 2 3 2 2 1 1 3 5 8 10 9 6 5 3
3 5 2 5 4 2 7 11 8 6 4 5 7 6 2 5 7 6 9 9 8 9 9 8 7 6 4 3 2 1 1 1 1 1 0 1 2 3 3 2 2 6 6 6 7 8 9 5 5
2 6 5 3 3 4 4 9 7 7 12 6 8 5 3 2 5 6 7 8 8 7 7 7 6 6 4 4 2 2 2 3 2 1 1 1 2 3 3 2 1 4 6 7 5 5 4 6 7
5 3 5 2 3 2 2 3 11 3 9 6 5 2 4 4 7 9 8 8 5 7 7 6 6 5 4 4 3 3 2 3 1 1 2 1 1 2 3 3 2 3 3 7 7 4 5 3 3
7 6 7 5 3 2 5 6 8 5 4 4 3 2 5 5 6 7 6 7 6 5 6 6 6 4 4 4 3 3 3 3 2 2 2 1 1 1 1 2 5 5 5 5 6 6 6 4 3
4 6 3 5 3 7 3 3 13 9 8 5 9 10 4 6 7 7 9 8 7 7 6 5 6 5 5 4 3 3 3 3 4 3 3 3 3 2 2 5 7 5 4 6 4 6 6 5 5
7 8 7 8 5 3 3 6 10 5 5 4 4 7 3 5 5 7 8 7 7 7 7 6 6 5 5 5 5 3 3 2 2 2 2 2 2 3 4 5 7 7 6 6 5 3 3 4 4
6 6 6 5 3 4 4 8 14 2 6 8 8 4 4 1 3 6 6 6 6 6 7 7 6 5 5 5 4 4 3 3 3 3 3 2 3 2 5 5 6 7 7 8 7 5 4 4 4
4 6 4 2 2 4 3 5 8 11 14 14 17 15 7 1 1 2 4 5 4 4 4 5 6 6 5 5 4 4 4 4 4 3 4 5 4 4 4 6 6 7 8 7 7 6 5 5 3
4 3 2 4 5 5 4 6 6 7 9 11 15 17 15 6 1 2 3 3 5 4 6 6 5 6 5 6 5 5 4 5 4 4 5 5 3 4 5 4 6 6 7 7 6 6 7 8 6
0 6 6 5 5 3 1 4 4 6 9 12 14 16 18 14 9 6 2 3 4 5 5 6 6 6 6 5 5 6 5 5 5 5 5 4 4 3 4 5 5 6 6 6 7 7 6 8 10
Wind_Direction
360 29 63 44 55 62 264 259 264 257 239 231 23 199 191 109 166 205 351 163 129 134 132 131 141 143 140 137 130 125 112 96 78 48 17 356 342 329 318 313 301 306 279 259 251 236 231 222 211
24 87 42 81 96 89 262 257 238 233 241 107 134 70 32 242 162 125 118 181 137 137 129 124 135 143 142 137 133 128 116 100 74 45 15 353 337 327 317 314 311 306 293 274 259 243 233 224 205
124 50 85 108 136 191 217 222 230 283 267 229 174 82 154 217 199 179 192 139 121 123 125 133 140 146 146 142 133 124 116 102 72 29 356 338 331 325 316 310 305 302 298 292 274 265 252 237 226
116 29 39 117 222 250 212 254 176 271 274 242 170 238 283 184 176 176 136 132 129 134 137 144 148 147 146 142 139 130 113 97 49 356 336 329 322 316 313 309 304 300 298 296 291 292 276 260 244
44 66 89 274 263 266 248 259 172 203 277 261 165 263 241 222 46 125 135 139 141 144 156 147 150 151 149 149 143 130 118 95 2 343 338 330 326 320 314 310 306 300 296 292 292 292 297 294 261
63 97 94 243 258 268 280 239 164 205 251 291 156 188 235 333 135 147 131 142 147 151 161 155 151 154 154 156 156 161 168 303 344 333 332 331 330 324 315 311 310 304 297 290 286 288 290 295 294
123 105 223 231 262 280 239 134 200 199 250 261 175 188 306 277 160 140 135 134 151 151 148 155 155 162 162 169 185 200 233 288 319 312 314 321 316 318 314 314 314 307 299 294 288 283 283 285 288
105 107 179 246 231 264 220 338 209 185 243 325 188 235 266 214 147 114 121 144 161 162 159 167 167 163 171 200 215 231 239 314 308 308 310 313 312 321 330 326 319 312 305 301 294 286 284 279 279
169 80 221 253 169 254 355 28 267 21 280 257 220 182 290 137 126 118 118 137 172 187 182 174 170 179 179 194 193 87 8 337 343 333 313 312 262 247 277 299 312 307 311 313 310 293 278 282 302
113 169 211 215 218 242 319 202 285 350 288 265 282 196 96 133 157 163 173 186 191 196 196 183 174 182 181 196 135 82 339 333 306 297 283 285 271 249 300 283 290 307 304 307 298 299 291 281 296
169 215 210 256 230 188 221 272 203 193 264 225 226 233 155 159 178 186 197 194 200 188 173 176 176 176 181 180 154 269 291 291 287 289 271 283 288 287 290 295 309 299 291 309 305 295 279 247 224
178 243 228 281 294 328 241 290 284 201 244 233 245 225 165 178 195 201 203 205 180 183 187 174 176 170 188 163 172 228 262 268 278 274 289 322 342 344 333 313 303 300 305 302 295 280 255 227 233
221 270 227 258 284 254 315 252 249 262 259 262 262 243 191 204 210 221 212 203 177 196 183 179 163 174 181 171 183 260 274 267 253 263 283 9 324 319 312 308 311 303 306 302 302 305 189 195 126
199 245 272 281 265 249 223 245 118 258 219 277 224 237 219 210 211 203 186 209 197 188 180 160 170 174 172 166 186 232 263 258 253 255 288 314 256 253 262 303 307 298 300 292 293 289 160 135 113
110 318 324 252 245 232 168 278 229 247 290 276 269 241 238 229 204 215 208 203 184 185 153 163 161 167 166 153 167 181 268 284 258 282 288 285 276 304 325 307 297 292 306 312 330 95 125 119 105
76 57 349 296 137 255 134 268 276 247 232 265 274 258 247 250 221 218 200 186 169 149 160 154 154 162 155 149 142 286 281 319 316 347 318 318 290 308 290 312 299 309 316 322 346 99 107 97 96
5 211 206 311 187 141 148 280 276 301 310 275 261 263 255 251 241 216 194 171 163 158 151 154 155 161 149 138 114 59 328 13 349 324 336 320 312 274 231 307 298 307 327 298 93 82 100 72 73
185 210 238 238 231 174 248 266 271 282 281 277 276 261 249 248 237 215 170 152 142 137 136 144 150 147 139 115 90 52 17 7 316 290 277 68 60 185 104 299 292 331 336 89 78 71 69 87 91
129 174 242 277 11 313 250 273 280 281 263 277 275 269 257 250 267 155 136 134 129 130 142 155 146 159 137 127 127 69 57 346 312 357 30 109 160 126 115 299 282 31 52 88 96 103 105 91 92
308 9 290 289 357 192 303 282 283 276 259 249 249 266 269 248 101 117 130 141 155 149 152 151 153 160 158 138 162 141 154 256 251 18 57 168 135 107 148 138 320 87 112 105 115 118 117 100 20
216 200 218 230 330 257 331 287 318 296 283 277 248 239 196 222 170 150 151 153 143 153 159 155 159 157 156 154 117 87 55 285 220 353 32 208 137 118 114 78 330 121 114 128 122 131 140 108 101
243 200 171 203 67 238 50 286 306 294 304 274 287 223 188 127 132 146 159 153 161 161 146 143 150 157 163 156 136 138 150 177 205 218 188 177 159 121 122 114 78 160 127 137 127 131 115 128 140
216 115 138 117 122 8 318 64 270 318 290 298 359 175 174 170 164 161 169 155 152 146 151 144 145 155 165 157 167 143 149 190 232 233 145 140 111 133 147 145 180 132 113 132 133 113 115 99 116
146 77 46 54 72 345 239 141 289 246 248 312 342 64 174 155 148 129 122 127 138 142 140 144 149 170 180 163 201 155 177 212 183 177 147 144 145 112 135 198 139 133 123 134 147 133 138 121 114
95 89 340 349 11 225 358 90 246 275 284 274 296 294 186 147 154 151 154 159 161 168 161 156 157 181 194 181 200 207 212 221 210 183 173 163 163 152 175 135 134 119 127 134 125 144 147 145 156
178 154 162 210 196 244 55 229 251 216 297 275 315 333 73 137 157 174 169 170 173 170 166 164 173 191 196 193 210 217 221 220 232 201 210 159 157 156 156 127 135 138 137 131 141 143 143 151 150
177 199 158 98 24 58 227 279 304 94 31 7 345 341 346 140 179 190 170 170 174 177 181 180 181 199 203 214 210 216 210 219 224 220 185 207 247 190 156 143 139 151 157 157 151 164 167 153 155
146 175 97 5 198 239 273 275 245 358 350 351 4 2 337 330 172 180 172 173 180 196 199 190 195 196 201 219 224 221 215 222 227 225 211 212 227 193 177 163 159 164 164 170 168 162 169 165 162
149 182 144 144 169 179 160 252 355 13 1 359 4 3 349 329 278 187 189 197 193 196 204 211 205 196 201 208 225 229 230 221 231 235 226 216 214 185 195 191 167 173 170 170 172 177 175 171 163
257 203 169 156 218 239 186 256 17 42 24 19 15 11 13 18 10 359 305 224 222 223 223 217 216 209 204 206 213 231 237 225 222 235 247 238 217 211 202 184 195 180 179 173 183 172 183 187 185